This is the latest recevied weather packets stored in our database for station/object K3HM. If no packets are shown the sender has not sent any weather packets the latest 10 day(s).
| Time | Temp. | Humidity | Pressure | Rain* | Wind** | Luminosity | Snow |
|---|---|---|---|---|---|---|---|
| 1777655843 | 12.22° C | 46% | 1012 hPa | 0 mm | - | 276 W/m² | - |
| 1777655540 | 12.22° C | 50% | 1012.2 hPa | 0 mm | - | 489 W/m² | - |
| 1777655237 | 12.22° C | 46% | 1012 hPa | 0 mm | - | 590 W/m² | - |
| 1777654933 | 12.22° C | 51% | 1012 hPa | 0 mm | - | 399 W/m² | - |
| 1777654631 | 11.67° C | 48% | 1012 hPa | 0 mm | - | 413 W/m² | - |
| 1777654328 | 12.22° C | 48% | 1011.9 hPa | 0 mm | - | 282 W/m² | - |
| 1777654026 | 12.22° C | 48% | 1012.2 hPa | 0 mm | - | 281 W/m² | - |
| 1777653723 | 11.67° C | 50% | 1012.3 hPa | 0 mm | - | 982 W/m² | - |
| 1777653419 | 12.22° C | 51% | 1012.4 hPa | 0 mm | - | 500 W/m² | - |
| 1777653116 | 12.22° C | 49% | 1012.5 hPa | 0 mm | - | 781 W/m² | - |
| 1777652812 | 11.11° C | 53% | 1012.5 hPa | 0 mm | - | 542 W/m² | - |
| 1777652509 | 11.67° C | 56% | 1012.7 hPa | 0 mm | - | 476 W/m² | - |
| 1777652206 | 11.11° C | 56% | 1012.8 hPa | 0 mm | - | 388 W/m² | - |
| 1777651903 | 11.11° C | 55% | 1012.8 hPa | 0 mm | - | 385 W/m² | - |
| 1777651600 | 11.11° C | 58% | 1013 hPa | 0 mm | - | 394 W/m² | - |
| 1777651297 | 11.11° C | 56% | 1013 hPa | 0 mm | - | 435 W/m² | - |
| 1777650994 | 11.11° C | 55% | 1012.7 hPa | 0 mm | - | 336 W/m² | - |
| 1777650691 | 10.56° C | 59% | 1012.9 hPa | 0 mm | - | 321 W/m² | - |
| 1777650388 | 10.56° C | 58% | 1013.1 hPa | 0 mm | - | 310 W/m² | - |
| 1777650085 | 11.11° C | 57% | 1013.1 hPa | 0 mm | - | 442 W/m² | - |
| 1777649782 | 10.56° C | 57% | 1013.1 hPa | 0 mm | - | 491 W/m² | - |
| 1777649479 | 11.11° C | 56% | 1013.2 hPa | 0 mm | - | 568 W/m² | - |
| 1777649176 | 10.56° C | 56% | 1013.2 hPa | 0 mm | - | 614 W/m² | - |
| 1777648873 | 10.56° C | 61% | 1013.5 hPa | 0 mm | - | 612 W/m² | - |
| 1777648267 | 10° C | 60% | 1013.7 hPa | 0 mm | - | 443 W/m² | - |
* Rain latest hour (hover to see other rain measurements)
** Current wind speed in m/s (hover to see current wind gust speed)